Location: Gesvres
(49.0440°N, 2.8518°E)
Time: 08:01:04
(UTC+00:00)

Cosmos 2263 Rocket - Pass Details

Date: 28 January 2023
Orbit: 824 x 847 km, 71.0° (Epoch: 30 March)

Event Time Altitude Azimuth Distance (km) Brightness Sun altitude
Rises 17:05:24 0° 334° (NNW) 3,379 5.4 -4.8°
Reaches altitude 10° 17:08:01 10° 342° (NNW) 2,440 4.6 -5.2°
Maximum altitude 17:13:15 40° 51° (NE) 1,212 2.6 -6.0°
Drops below altitude 10° 17:18:26 10° 121° (ESE) 2,423 4.2 -6.8°
Sets 17:21:01 0° 129° (SE) 3,353 5.0 -7.2°
